Overview Statistics Trail Chart Weather Telemetry Raw packets
 

This is the latest recevied weather packets stored in our database for station/object SPDRWX. If no packets are shown the sender has not sent any weather packets the latest 10 day(s).

<< 94 95 96 97 98 99 100 >>
Time Temp. Humidity Pressure Rain* Wind** Luminosity Snow
1787933321 12.78° C 52% 1018 hPa 0.76 mm - - -
1787932116 14.44° C 45% 1017.6 hPa 0.25 mm - - -
1787931513 15° C 41% 1017.7 hPa 0 mm - - -
1787930309 16.11° C 29% 1017.3 hPa 0 mm - - -
1787929706 16.67° C 29% 1017.3 hPa 0 mm - - -
1787929404 16.67° C 29% 1017.3 hPa 0 mm - - -
1787929104 16.67° C 29% 1017.2 hPa 0 mm - - -
1787928802 16.67° C 29% 1017.2 hPa 0 mm - - -
1787928200 16.67° C 29% 1017.1 hPa 0 mm - - -
1787927597 16.67° C 28% 1017.1 hPa 0 mm - - -
1787926994 16.67° C 28% 1016.9 hPa 0 mm - - -
1787926392 16.67° C 28% 1016.9 hPa 0 mm - - -
1787926090 16.67° C 28% 1016.9 hPa 0 mm - - -
1787925789 16.67° C 28% 1016.9 hPa 0 mm - - -
1787925488 16.67° C 28% 1016.8 hPa 0 mm - - -
1787925186 16.67° C 28% 1016.8 hPa 0 mm - - -
1787924885 16.67° C 28% 1016.8 hPa 0 mm - - -
1787924585 16.67° C 28% 1016.6 hPa 0 mm - - -
1787923981 16.67° C 28% 1016.6 hPa 0 mm - - -
1787923078 16.67° C 28% 1016.7 hPa 0 mm - - -
1787922174 17.22° C 27% 1016.6 hPa 0 mm - - -
1787921873 17.22° C 27% 1016.6 hPa 0 mm - - -
1787921571 17.22° C 27% 1016.6 hPa 0 mm - - -
1787921270 17.22° C 27% 1016.5 hPa 0 mm - - -
1787920969 17.22° C 27% 1016.6 hPa 0 mm - - -

* Rain since midnight (hover to see other rain measurements)
** Current wind speed in m/s (hover to see current wind gust speed)